User: anonymous   Login
Location: Unspecified
(0.0000°N, 0.0000°E)
Time: 23:06:06
(UTC+00:00)
Language:

STARLINK-36198 - Orbit

View from above orbital plane
View from above orbital plane
View from above satellite
View from above satellite

Ground track
Ground track

The orbit is defined by the following mean orbital elements,

1 67167U          26145.53717979 +.00000000 +00000-0 +58583-3 0 00008
2 67167  42.9993 237.0997 0001564 270.9414  89.1259 15.27614713    06
Epoch (UTC): 25 May 2026 12:53:32
Eccentricity: 0.0001564
inclination: 42.9993°
perigee height: 482 km
apogee height: 484 km
right ascension of ascending node: 237.0997°
argument of perigee: 270.9414°
revolutions per day: 15.27614713
mean anomaly at epoch: 89.1259°

The dashed part of the orbit path shows where the satellite is in the earth's shadow,  

DLR